Flag for United Kingdom Weather past 2 weeks in Chichester, England, United Kingdom

Now
63 °F

Mild.


Feels Like: 63 °F
Forecast: 59 / 67 °F
Wind: 8 mph from Southwest

Location: Thorney Island

Current Time: Aug 3, 2015 at 4:08:57 AM

Latest Report: Aug 3, 2015 at 3:00 AM


Visibility: 17 mi

Pressure: 29.81 "Hg

Humidity: 87%

Dew point: 59 °F

Location of ChichesterLocation

Historic Weather in Chichester — Graph

°F

Chichester temperature yesterday

Maximum temperature yesterday: 73 °F (at 6:00 PM)
Minimum temperature yesterday: 51 °F (at 6:00 AM)
Average temperature yesterday: 64 °F

Past Weeks' High & Low Weather Summary

 TemperatureHumidityPressure
High73 °F (Aug 2, 6:00 PM)97% (Aug 1, 5:00 AM)30.14 "Hg (Aug 1, 5:00 AM)
Low44 °F (Aug 1, 6:00 AM)35% (Jul 30, 6:00 PM)29.47 "Hg (Jul 26, 7:00 PM)
Average61 °F75%29.91 "Hg
* Reported Jul 19 2:00 AM — Aug 3 2:00 AM, Chichester, Weather by CustomWeather, © 2015

Note: Actual official high and low records may vary slightly from our data, if they occured in-between our weather recording intervals... More about our weather records

Advertising

Chichester weather history for previous 24 hours

 ConditionsComfort  
Time TempWeatherWind HumidityBarometerVisibility
2:00 AM
Mon, Aug 3
62 °FCool.1 mph85%29.82 "Hg13 mi
1:00 AM65 °FMild.10 mph76%29.83 "Hg17 mi
12:00 AM66 °FMild.13 mph66%29.84 "Hg22 mi
11:00 PM
Sun, Aug 2
66 °FMild.10 mph61%29.86 "Hg31 mi
9:00 PM67 °FMild.9 mph56%29.88 "Hg28 mi
8:00 PM69 °FMild.10 mph53%29.90 "Hg31 mi
7:00 PM71 °FMild.12 mph50%29.91 "Hg22 mi
6:00 PM73 °FMild.14 mph50%29.94 "Hg31 mi
5:00 PM72 °FMild.15 mph49%29.96 "Hg19 mi
4:00 PM71 °FMild.17 mph50%29.98 "Hg17 mi
3:00 PM69 °FMild.16 mph52%30.01 "Hg31 mi
2:00 PM70 °FMild.15 mph49%30.03 "Hg25 mi
1:00 PM69 °FMild.14 mph52%30.05 "Hg31 mi
12:00 PM68 °FMild.14 mph50%30.06 "Hg31 mi
11:00 AM67 °FMild.13 mph56%30.06 "Hg19 mi
10:00 AM66 °FMild.10 mph62%30.09 "Hg25 mi
9:00 AM63 °FMild.9 mph77%30.08 "Hg22 mi
8:00 AM58 °FCool.6 mph94%30.08 "Hg8 mi
7:00 AM55 °FCool.3 mph97%30.08 "Hg9 mi
6:00 AM51 °FFog.2 mph97%30.07 "Hg5 mi
5:00 AM51 °FFog.5 mph97%30.07 "Hg4 mi
4:00 AM52 °FFog.2 mph96%30.07 "Hg4 mi
Weather by CustomWeather, © 2015

See weather overviewHow to use our weather pages